Time,TemperatureF,DewpointF,PressureIn,WindDirection,WindDirectionDegrees,WindSpeedMPH,WindSpeedGustMPH,Humidity,HourlyPrecipIn,Conditions,Clouds,dailyrainin,SolarRadiationWatts/m^2,SoftwareType,DateUTC
2013-12-05 00:02:00,64.0,56.0,-100.00,WSW,258,6.0,13.0,75,0.00,,,-99.99,0.000000,,2013-12-05 05:02:00,
2013-12-05 00:43:00,65.0,57.0,-100.00,West,260,7.0,15.0,76,0.00,,,0.00,0.000000,,2013-12-05 05:43:00,
2013-12-05 00:53:00,65.0,57.0,-100.00,West,260,7.0,15.0,76,0.00,,,0.00,0.000000,,2013-12-05 05:53:00,
2013-12-05 01:02:00,65.0,57.0,-100.00,West,260,7.0,15.0,76,0.00,,,0.00,0.000000,,2013-12-05 06:02:00,
2013-12-05 01:43:00,66.0,59.0,-100.00,West,260,6.0,16.0,78,0.00,,,0.00,0.000000,,2013-12-05 06:43:00,
2013-12-05 01:52:00,66.0,59.0,-100.00,West,260,6.0,16.0,78,0.00,,,0.00,0.000000,,2013-12-05 06:52:00,
2013-12-05 02:02:00,66.0,59.0,-100.00,West,260,6.0,16.0,78,0.00,,,0.00,0.000000,,2013-12-05 07:02:00,
2013-12-05 02:42:00,66.0,59.0,-100.00,West,264,5.0,14.0,79,0.00,,,0.00,0.000000,,2013-12-05 07:42:00,
2013-12-05 02:52:00,66.0,59.0,-100.00,West,264,5.0,14.0,79,0.00,,,0.00,0.000000,,2013-12-05 07:52:00,
2013-12-05 03:02:00,66.0,59.0,-100.00,West,264,5.0,14.0,79,0.00,,,0.00,0.000000,,2013-12-05 08:02:00,
2013-12-05 03:42:00,66.0,59.0,-100.00,WNW,291,5.0,14.0,79,0.00,,,0.00,0.000000,,2013-12-05 08:42:00,
2013-12-05 03:53:00,66.0,59.0,-100.00,WNW,291,5.0,14.0,79,0.00,,,0.00,0.000000,,2013-12-05 08:53:00,
2013-12-05 04:02:00,66.0,59.0,-100.00,WNW,291,5.0,14.0,79,0.00,,,0.00,0.000000,,2013-12-05 09:02:00,
2013-12-05 04:43:00,65.0,59.0,-100.00,West,281,5.0,15.0,81,0.00,,,0.00,0.000000,,2013-12-05 09:43:00,
2013-12-05 04:54:00,65.0,59.0,-100.00,West,281,5.0,15.0,81,0.00,,,0.00,0.000000,,2013-12-05 09:54:00,
2013-12-05 05:03:00,65.0,59.0,-100.00,West,281,5.0,15.0,81,0.00,,,0.00,0.000000,,2013-12-05 10:03:00,
2013-12-05 05:43:00,62.0,57.0,-100.00,North,3,5.0,12.0,84,0.00,,,0.00,0.000000,,2013-12-05 10:43:00,
2013-12-05 05:53:00,62.0,57.0,-100.00,North,3,5.0,12.0,84,0.00,,,0.00,0.000000,,2013-12-05 10:53:00,
2013-12-05 06:02:00,62.0,57.0,-100.00,North,3,5.0,12.0,84,0.00,,,0.00,0.000000,,2013-12-05 11:02:00,
2013-12-05 06:42:00,56.0,55.0,-100.00,NNW,337,2.0,10.0,98,0.15,,,0.15,0.000000,,2013-12-05 11:42:00,
2013-12-05 06:53:00,56.0,55.0,-100.00,NNW,337,2.0,10.0,98,0.15,,,0.15,0.000000,,2013-12-05 11:53:00,
2013-12-05 07:02:00,56.0,55.0,-100.00,NNW,337,2.0,10.0,98,0.15,,,0.15,0.000000,,2013-12-05 12:02:00,
2013-12-05 07:42:00,50.0,49.0,-100.00,NNW,332,5.0,13.0,97,0.08,,,0.23,0.000000,,2013-12-05 12:42:00,
2013-12-05 07:52:00,50.0,49.0,-100.00,NNW,332,5.0,13.0,97,0.08,,,0.23,0.000000,,2013-12-05 12:52:00,
2013-12-05 08:02:00,50.0,49.0,-100.00,NNW,332,5.0,13.0,97,0.08,,,0.23,0.000000,,2013-12-05 13:02:00,
2013-12-05 08:42:00,48.0,45.0,-100.00,North,357,5.0,15.0,90,0.00,,,0.23,1.000000,,2013-12-05 13:42:00,
2013-12-05 08:52:00,48.0,45.0,-100.00,North,357,5.0,15.0,90,0.00,,,0.23,1.000000,,2013-12-05 13:52:00,
2013-12-05 09:02:00,48.0,45.0,-100.00,North,357,5.0,15.0,90,0.00,,,0.23,1.000000,,2013-12-05 14:02:00,
2013-12-05 09:42:00,45.0,40.0,-100.00,North,2,4.0,14.0,82,0.00,,,0.23,13.000000,,2013-12-05 14:42:00,
2013-12-05 09:52:00,45.0,40.0,-100.00,North,2,4.0,14.0,82,0.00,,,0.23,13.000000,,2013-12-05 14:52:00,
2013-12-05 10:02:00,45.0,40.0,-100.00,North,2,4.0,14.0,82,0.00,,,0.23,13.000000,,2013-12-05 15:02:00,
2013-12-05 10:43:00,45.0,40.0,-100.00,NNW,333,3.0,11.0,82,0.00,,,0.23,65.000000,,2013-12-05 15:43:00,
2013-12-05 10:54:00,45.0,40.0,-100.00,NNW,333,3.0,11.0,82,0.00,,,0.23,65.000000,,2013-12-05 15:54:00,
2013-12-05 11:04:00,45.0,40.0,-100.00,NNW,333,3.0,11.0,82,0.00,,,0.23,65.000000,,2013-12-05 16:04:00,
2013-12-05 11:43:00,42.0,37.0,-100.00,North,9,3.0,12.0,83,0.00,,,0.23,36.000000,,2013-12-05 16:43:00,
2013-12-05 11:53:00,42.0,37.0,-100.00,North,9,3.0,12.0,83,0.00,,,0.23,36.000000,,2013-12-05 16:53:00,
2013-12-05 12:02:00,42.0,37.0,-100.00,North,9,3.0,12.0,83,0.00,,,0.23,36.000000,,2013-12-05 17:02:00,
2013-12-05 12:42:00,42.0,36.0,-100.00,North,356,4.0,10.0,79,0.00,,,0.23,105.000000,,2013-12-05 17:42:00,
2013-12-05 12:52:00,42.0,36.0,-100.00,North,356,4.0,10.0,79,0.00,,,0.23,105.000000,,2013-12-05 17:52:00,
2013-12-05 13:02:00,42.0,36.0,-100.00,North,356,4.0,10.0,79,0.00,,,0.23,105.000000,,2013-12-05 18:02:00,
2013-12-05 13:42:00,39.0,33.0,-100.00,North,10,4.0,14.0,78,0.00,,,0.23,75.000000,,2013-12-05 18:42:00,
2013-12-05 13:52:00,39.0,33.0,-100.00,North,10,4.0,14.0,78,0.00,,,0.23,75.000000,,2013-12-05 18:52:00,
2013-12-05 14:02:00,39.0,33.0,-100.00,North,10,4.0,14.0,78,0.00,,,0.23,75.000000,,2013-12-05 19:02:00,
2013-12-05 14:42:00,37.0,35.0,-100.00,North,10,4.0,13.0,93,0.03,,,0.26,74.000000,,2013-12-05 19:42:00,
2013-12-05 14:52:00,37.0,35.0,-100.00,North,10,4.0,13.0,93,0.03,,,0.26,74.000000,,2013-12-05 19:52:00,
2013-12-05 15:02:00,37.0,35.0,-100.00,North,10,4.0,13.0,93,0.03,,,0.26,74.000000,,2013-12-05 20:02:00,
2013-12-05 15:42:00,36.0,34.0,-100.00,North,5,3.0,10.0,91,0.00,,,0.26,44.000000,,2013-12-05 20:42:00,
2013-12-05 15:52:00,36.0,34.0,-100.00,North,5,3.0,10.0,91,0.00,,,0.26,44.000000,,2013-12-05 20:52:00,
2013-12-05 16:02:00,36.0,34.0,-100.00,North,5,3.0,10.0,91,0.00,,,0.26,44.000000,,2013-12-05 21:02:00,
2013-12-05 16:44:00,35.0,32.0,-100.00,North,8,4.0,11.0,90,0.00,,,0.26,17.000000,,2013-12-05 21:44:00,
2013-12-05 16:53:00,35.0,32.0,-100.00,North,8,4.0,11.0,90,0.00,,,0.26,17.000000,,2013-12-05 21:53:00,
2013-12-05 17:03:00,35.0,32.0,-100.00,North,8,4.0,11.0,90,0.00,,,0.26,17.000000,,2013-12-05 22:03:00,
2013-12-05 17:42:00,33.0,32.0,-100.00,NE,44,4.0,10.0,98,0.12,,,0.38,4.000000,,2013-12-05 22:42:00,
2013-12-05 17:52:00,33.0,32.0,-100.00,NE,44,4.0,10.0,98,0.12,,,0.38,4.000000,,2013-12-05 22:52:00,
2013-12-05 18:02:00,33.0,32.0,-100.00,NE,44,4.0,10.0,98,0.12,,,0.38,4.000000,,2013-12-05 23:02:00,
2013-12-05 18:43:00,32.0,31.0,-100.00,ENE,57,3.0,9.0,97,0.00,,,0.38,0.000000,,2013-12-05 23:43:00,
2013-12-05 18:53:00,32.0,31.0,-100.00,ENE,57,3.0,9.0,97,0.00,,,0.38,0.000000,,2013-12-05 23:53:00,
2013-12-05 19:02:00,32.0,31.0,-100.00,ENE,57,3.0,9.0,97,0.00,,,0.38,0.000000,,2013-12-06 00:02:00,
2013-12-05 19:42:00,32.0,31.0,-100.00,NNE,32,3.0,7.0,96,0.00,,,0.38,0.000000,,2013-12-06 00:42:00,
2013-12-05 19:52:00,32.0,31.0,-100.00,NNE,32,3.0,7.0,96,0.00,,,0.38,0.000000,,2013-12-06 00:52:00,
2013-12-05 20:01:00,32.0,31.0,-100.00,NNE,32,3.0,7.0,96,0.00,,,0.38,0.000000,,2013-12-06 01:01:00,
2013-12-05 20:42:00,32.0,30.0,-100.00,NNE,32,3.0,9.0,93,0.00,,,0.38,0.000000,,2013-12-06 01:42:00,
2013-12-05 20:52:00,32.0,30.0,-100.00,NNE,32,3.0,9.0,93,0.00,,,0.38,0.000000,,2013-12-06 01:52:00,
2013-12-05 21:01:00,32.0,30.0,-100.00,NNE,32,3.0,9.0,93,0.00,,,0.38,0.000000,,2013-12-06 02:01:00,
2013-12-05 21:42:00,31.0,30.0,-100.00,NE,47,3.0,12.0,96,0.00,,,0.38,0.000000,,2013-12-06 02:42:00,
2013-12-05 21:52:00,31.0,30.0,-100.00,NE,47,3.0,12.0,96,0.00,,,0.38,0.000000,,2013-12-06 02:52:00,
2013-12-05 22:02:00,31.0,30.0,-100.00,NE,47,3.0,12.0,96,0.00,,,0.38,0.000000,,2013-12-06 03:02:00,
2013-12-05 22:44:00,31.0,29.0,-100.00,NE,44,4.0,10.0,94,0.00,,,0.38,0.000000,,2013-12-06 03:44:00,
2013-12-05 22:53:00,31.0,29.0,-100.00,NE,44,4.0,10.0,94,0.00,,,0.38,0.000000,,2013-12-06 03:53:00,
2013-12-05 23:03:00,31.0,29.0,-100.00,NE,44,4.0,10.0,94,0.00,,,0.38,0.000000,,2013-12-06 04:03:00,
2013-12-05 23:43:00,30.0,28.0,-100.00,NE,43,3.0,11.0,93,0.00,,,-99.99,0.000000,,2013-12-06 04:43:00,
2013-12-05 23:53:00,30.0,28.0,-100.00,NE,43,3.0,11.0,93,0.00,,,-99.99,0.000000,,2013-12-06 04:53:00,